#timestamp,LO_Frequency,Hit 
1499742015.6,286046982.4,N
1499742035.4,286046982.7,N
1499742055.3,286046982.3,N
1499742075.1,286046983.3,N
1499742095.9,286046982.9,N
1499742115.7,286046983.3,N
1499742135.5,286046983.5,N
1499742155.4,286046982.9,N
1499742175.2,286046982.3,N
1499742195.0,286046983.0,N
1499742195.9,286046983.0,N
1499742215.8,286046982.9,N
1499742235.6,286046982.6,N
1499742255.5,286046982.8,N
1499742275.3,286046983.0,N
1499742295.1,286046982.1,N
1499742315.9,286046984.5,N
1499742335.7,286046985.0,N
1499742355.5,286046984.8,N
1499742375.4,286046984.5,N
1499742395.2,286046985.0,N
1499742415.1,286046985.1,N
1499742416.0,286046985.1,N
1499742435.8,286046982.2,N
1499742455.6,286046984.8,N
1499742475.5,286046983.7,N
1499742495.3,286046984.5,N
1499742515.1,286046983.8,N
1499742535.9,286046984.8,N
1499742555.7,286046984.5,N
1499742575.6,286046982.1,N
1499742595.4,286046982.2,N
1499742615.2,286046983.3,N
1499742635.1,286046982.4,N
1499742636.0,286046982.4,N
1499742655.8,286046982.6,N
1499742675.6,286046985.1,N
1499742695.5,286046985.2,N
1499742715.3,286046985.1,N
1499742735.2,286046984.8,N
1499742755.9,286046982.5,N
1499742775.7,286046985.1,N
1499742795.6,286046982.2,N
1499742815.4,286046985.2,N
1499742835.2,286046982.1,N
1499742855.1,286046982.2,N
1499742856.0,286046982.2,N
1499742875.8,286046984.4,N
1499742895.7,286046982.1,N
1499742915.5,286046984.9,N
1499742935.3,286046982.1,N
1499742955.2,286046982.3,N
1499742975.9,286046982.8,N
1499742995.7,286046982.3,N
1499743015.6,286046983.3,N
1499743035.4,286046984.8,N
1499743055.2,286046982.7,N
1499743075.1,286046980.9,N
1499743076.0,286046980.9,N
1499743095.8,286046982.3,N
1499743115.7,286046983.1,N
1499743135.5,286046980.6,N
1499743155.3,286046981.4,N
1499743175.2,286046980.9,N
1499743195.0,286046983.5,N
1499743195.9,286046983.5,N
1499743215.7,286046983.0,N
1499743235.6,286046983.3,N
1499743255.4,286046983.4,N
1499743275.3,286046983.0,N
1499743295.1,286046982.3,N
1499743296.0,286046982.3,N
1499743315.8,286046982.3,N
1499743335.7,286046982.6,N
1499743355.5,286046982.3,N
1499743375.4,286046982.9,N
1499743395.2,286046982.2,N
1499743415.0,286046984.7,N
1499743415.9,286046984.7,N
1499743435.8,286046983.0,N
1499743455.6,286046983.1,N
1499743475.4,286046983.1,N
1499743495.3,286046983.2,N
1499743515.1,286046983.6,N
1499743535.9,286046980.9,N
1499743555.7,286046981.0,N
1499743575.5,286046983.1,N
1499743595.4,286046983.1,N
1499743615.2,286046980.5,N
1499743635.0,286046983.4,N
1499743635.9,286046983.4,N
1499743655.8,286046982.4,N
1499743675.6,286046982.8,N
1499743695.5,286046983.2,N
1499743715.3,286046982.6,N
1499743735.1,286046983.5,N
1499743755.9,286046982.8,N
1499743775.7,286046983.0,N
1499743795.5,286046983.6,N
1499743815.4,286046982.9,N
1499743835.2,286046983.0,N
1499743855.0,286046982.9,N
1499743856.0,286046982.9,N
1499743875.8,286046983.3,N
1499743895.6,286046983.3,N
1499743915.5,286046980.8,N
1499743935.3,286046983.1,N
1499743955.1,286046983.1,N
1499743975.9,286046983.6,N
1499743995.7,286046981.1,N
1499744015.5,286046980.6,N
1499744035.4,286046983.5,N
1499744055.2,286046983.5,N
1499744075.1,286046980.9,N
1499744076.0,286046980.9,N
1499744095.8,286046981.2,N
1499744115.6,286046981.7,N
1499744135.5,286046980.5,N
1499744155.3,286046981.3,N
1499744175.2,286046980.7,N
1499744195.9,286046983.3,N
1499744215.7,286046982.8,N
1499744235.6,286046983.0,N
1499744255.4,286046983.0,N
1499744275.2,286046981.8,N
1499744295.1,286046978.9,N
1499744296.0,286046978.9,N
1499744315.8,286046979.2,N
1499744335.7,286046979.3,N
1499744355.5,286046979.5,N
1499744375.3,286046978.9,N
1499744395.2,286046981.2,N
1499744415.0,286046981.7,N
1499744415.9,286046981.7,N
1499744435.7,286046981.8,N
1499744455.6,286046978.9,N
1499744475.4,286046981.6,N
1499744495.3,286046979.2,N
1499744515.1,286046981.9,N
1499744516.0,286046981.9,N
1499744535.8,286046979.1,N
1499744555.7,286046978.9,N
1499744575.5,286046981.5,N
1499744595.3,286046983.5,N
1499744615.2,286046983.5,N
1499744635.0,286046981.1,N
1499744635.9,286046981.1,N
1499744655.8,286046982.0,N
1499744675.6,286046982.0,N
1499744695.4,286046979.2,N
1499744715.3,286046979.1,N
1499744735.1,286046981.8,N
1499744755.8,286046979.0,N
1499744775.7,286046979.5,N
1499744795.5,286046979.6,N
1499744815.4,286046980.2,N
1499744835.2,286046979.5,N
1499744855.0,286046982.0,N
1499744855.9,286046982.0,N
1499744875.8,286046979.1,N
1499744895.6,286046979.4,N
1499744915.4,286046981.9,N
1499744935.3,286046981.7,N
1499744955.1,286046980.8,N
1499744975.9,286046981.3,N
1499744995.7,286046980.8,N
1499745015.5,286046980.7,N
1499745035.4,286046982.0,N
1499745055.2,286046980.8,N
1499745075.0,286046981.9,N
1499745075.9,286046981.9,N
1499745095.8,286046979.0,N
1499745115.6,286046979.6,N
1499745135.4,286046979.3,N
1499745155.3,286046981.7,N
1499745175.1,286046981.8,N
1499745195.9,286046979.2,Y
1499745215.7,286046999.3,N
1499745235.5,286046999.1,N
1499745255.4,286046999.2,N
1499745275.2,286046996.7,N
1499745295.1,286046999.2,N
1499745296.0,286046999.2,N
1499745315.8,286046999.6,N
1499745335.6,286046999.1,N
1499745355.5,286046999.5,N
1499745375.3,286046999.4,N
1499745395.1,286046998.3,N
1499745415.9,286046998.6,N
1499745435.7,286046998.5,N
1499745455.6,286047000.9,N
1499745475.4,286046999.0,N
1499745495.2,286046998.4,N
1499745515.1,286046999.0,N
1499745516.0,286046999.0,N
1499745535.8,286046998.2,N
1499745555.6,286046998.1,N
1499745575.5,286046998.5,N
1499745595.3,286046998.4,N
